Location: Astronomy Club of Akron Observatory
(40.9700°N, 81.5606°W)
Time: 13:33:28
(UTC-04:00)

N. Korean satellite - Pass Details

Date: 19 February 2019
Orbit: 456 x 510 km, 97.2° (Epoch: 23 March)

Event Time Altitude Azimuth Distance (km) Brightness Sun altitude
Rises 06:17:32 0° 18° (NNE) 2,507 10.4 -11.6°
Reaches altitude 10° 06:19:40 10° 26° (NNE) 1,619 9.5 -11.2°
Maximum altitude 06:22:59 42° 99° (E) 663 7.9 -10.6°
Drops below altitude 10° 06:26:15 10° 172° (S) 1,591 9.4 -10.0°
Sets 06:28:20 0° 179° (S) 2,457 10.3 -9.6°
